ITY1174 LICA-LIML

Flight info

Callsign ITY1174
Flight time 1h 23m
Altitude 36000
Route ARBUM M620 EVINO DCT SOR DCT LAT DCT OST DCT MEDAL DCT GILIO DCT KARDU DCT EMBOS DCT GIPIX DCT KALMO
Aircraft A320/M-SDE3FGHIRWY/LB1

Departure

Time 2026-05-06 13:15
Airport Lamezia Terme Sant'Eufemia International Airport (LICA)

Arrival

Time 2026-05-06 14:38
Airport Milano Linate Airport (LIML)
Time Latitude Longitude Altitude Speed Heading
2026-05-06 12:59 38.90827 16.24911 32 ft 0 kts 53°
2026-05-06 13:08 38.90817 16.24893 31 ft 3 kts 43°
2026-05-06 13:08 38.90802 16.24880 31 ft 2 kts 30°
2026-05-06 13:08 38.90787 16.24869 32 ft 3 kts 44°
2026-05-06 13:08 38.90775 16.24852 32 ft 3 kts 60°
2026-05-06 13:09 38.90769 16.24831 29 ft 0 kts 95°
2026-05-06 13:11 38.90768 16.24845 30 ft 5 kts 96°
2026-05-06 13:11 38.90749 16.24912 31 ft 8 kts 135°
2026-05-06 13:12 38.90698 16.24965 32 ft 9 kts 135°
2026-05-06 13:12 38.90672 16.25034 33 ft 8 kts 103°
2026-05-06 13:12 38.90658 16.25131 33 ft 14 kts 98°
2026-05-06 13:12 38.90648 16.25246 33 ft 12 kts 97°
2026-05-06 13:13 38.90627 16.25347 33 ft 12 kts 112°
2026-05-06 13:13 38.90582 16.25445 34 ft 12 kts 127°
2026-05-06 13:13 38.90528 16.25521 34 ft 11 kts 141°
2026-05-06 13:13 38.90459 16.25563 32 ft 11 kts 177°
2026-05-06 13:14 38.90404 16.25528 31 ft 8 kts 243°
2026-05-06 13:14 38.90401 16.25501 32 ft 0 kts 267°
2026-05-06 13:14 38.90415 16.25347 33 ft 51 kts 278°
2026-05-06 13:15 38.90497 16.24611 32 ft 115 kts 278°
2026-05-06 13:15 38.90641 16.23362 82 ft 159 kts 278°
2026-05-06 13:15 38.90792 16.21970 742 ft 158 kts 276°
2026-05-06 13:15 38.90921 16.20573 1431 ft 156 kts 275°
2026-05-06 13:16 38.91026 16.19191 2057 ft 154 kts 274°
2026-05-06 13:16 38.91168 16.17795 2446 ft 168 kts 277°
2026-05-06 13:16 38.91371 16.16218 2711 ft 190 kts 278°
2026-05-06 13:16 38.91601 16.14436 2999 ft 213 kts 277°
2026-05-06 13:17 38.91925 16.12495 3337 ft 238 kts 292°
2026-05-06 13:17 38.92921 16.10667 3712 ft 264 kts 310°
2026-05-06 13:17 38.94214 16.08919 4425 ft 274 kts 321°
2026-05-06 13:17 38.95801 16.07531 5307 ft 277 kts 325°
2026-05-06 13:18 38.97419 16.06159 6226 ft 279 kts 324°
2026-05-06 13:18 38.99043 16.04783 7095 ft 280 kts 324°
2026-05-06 13:18 39.00676 16.03398 7977 ft 281 kts 324°
2026-05-06 13:18 39.02283 16.01962 8860 ft 281 kts 320°
2026-05-06 13:19 39.03828 16.00411 9757 ft 282 kts 318°
2026-05-06 13:19 39.05362 15.98814 10419 ft 291 kts 317°
2026-05-06 13:19 39.06967 15.97111 10645 ft 314 kts 317°
2026-05-06 13:19 39.08699 15.95260 11030 ft 329 kts 317°
2026-05-06 13:20 39.10486 15.93357 11688 ft 335 kts 317°
2026-05-06 13:20 39.12303 15.91437 12410 ft 339 kts 318°
2026-05-06 13:20 39.14141 15.89504 13141 ft 343 kts 318°
2026-05-06 13:20 39.16002 15.87551 13830 ft 347 kts 318°
2026-05-06 13:21 39.17886 15.85570 14444 ft 350 kts 318°
2026-05-06 13:21 39.19760 15.83600 15043 ft 354 kts 317°
2026-05-06 13:21 39.21685 15.81573 15654 ft 358 kts 317°
2026-05-06 13:21 39.23623 15.79525 16263 ft 361 kts 317°
2026-05-06 13:22 39.25573 15.77462 16873 ft 364 kts 317°
2026-05-06 13:22 39.27547 15.75373 17477 ft 368 kts 317°
2026-05-06 13:22 39.29534 15.73270 18070 ft 371 kts 317°
2026-05-06 13:22 39.31544 15.71142 18623 ft 375 kts 317°
2026-05-06 13:23 39.33574 15.68992 19144 ft 378 kts 317°
2026-05-06 13:23 39.35614 15.66827 19679 ft 381 kts 317°
2026-05-06 13:23 39.37671 15.64641 20207 ft 384 kts 317°
2026-05-06 13:23 39.39717 15.62468 20730 ft 387 kts 317°
2026-05-06 13:24 39.41805 15.60244 21256 ft 390 kts 317°
2026-05-06 13:24 39.43907 15.58004 21789 ft 393 kts 317°
2026-05-06 13:24 39.46023 15.55748 22289 ft 396 kts 317°
2026-05-06 13:24 39.48161 15.53469 22789 ft 399 kts 317°
2026-05-06 13:25 39.50309 15.51177 23280 ft 402 kts 317°
2026-05-06 13:25 39.52479 15.48862 23733 ft 404 kts 317°
2026-05-06 13:25 39.54661 15.46537 24155 ft 406 kts 316°
2026-05-06 13:25 39.56853 15.44197 24585 ft 407 kts 316°
2026-05-06 13:26 39.59017 15.41878 24995 ft 408 kts 316°
2026-05-06 13:26 39.61220 15.39517 25412 ft 409 kts 316°
2026-05-06 13:26 39.63426 15.37154 25818 ft 410 kts 316°
2026-05-06 13:26 39.65636 15.34788 26214 ft 412 kts 316°
2026-05-06 13:27 39.67850 15.32417 26605 ft 413 kts 316°
2026-05-06 13:27 39.70045 15.30062 26981 ft 414 kts 316°
2026-05-06 13:27 39.72271 15.27666 27358 ft 415 kts 316°
2026-05-06 13:27 39.74499 15.25264 27731 ft 416 kts 316°
2026-05-06 13:28 39.76735 15.22846 28095 ft 417 kts 316°
2026-05-06 13:28 39.78974 15.20422 28453 ft 418 kts 316°
2026-05-06 13:28 39.81211 15.17999 28803 ft 420 kts 316°
2026-05-06 13:28 39.83457 15.15567 29127 ft 421 kts 316°
2026-05-06 13:29 39.85720 15.13121 29444 ft 422 kts 316°
2026-05-06 13:29 39.87985 15.10676 29767 ft 423 kts 316°
2026-05-06 13:29 39.90257 15.08221 30076 ft 424 kts 316°
2026-05-06 13:29 39.91761 15.06593 30244 ft 425 kts 316°
2026-05-06 13:30 39.94037 15.04125 30484 ft 426 kts 315°
2026-05-06 13:30 39.96317 15.01646 30723 ft 427 kts 315°
2026-05-06 13:30 39.98599 14.99161 30937 ft 428 kts 315°
2026-05-06 13:30 40.00889 14.96665 31182 ft 429 kts 315°
2026-05-06 13:31 40.03172 14.94176 31483 ft 427 kts 315°
2026-05-06 13:31 40.05449 14.91697 31793 ft 426 kts 315°
2026-05-06 13:31 40.07726 14.89217 32103 ft 425 kts 315°
2026-05-06 13:31 40.09994 14.86747 32406 ft 424 kts 314°
2026-05-06 13:32 40.12257 14.84276 32712 ft 423 kts 314°
2026-05-06 13:32 40.14507 14.81812 33009 ft 422 kts 314°
2026-05-06 13:32 40.16752 14.79352 33314 ft 421 kts 314°
2026-05-06 13:32 40.18998 14.76886 33620 ft 420 kts 314°
2026-05-06 13:33 40.21229 14.74436 33926 ft 419 kts 314°
2026-05-06 13:33 40.23461 14.71986 34203 ft 418 kts 314°
2026-05-06 13:33 40.25684 14.69545 34454 ft 417 kts 314°
2026-05-06 13:33 40.27909 14.67099 34702 ft 416 kts 314°
2026-05-06 13:34 40.30124 14.64657 34935 ft 416 kts 314°
2026-05-06 13:34 40.32338 14.62216 35159 ft 416 kts 314°
2026-05-06 13:34 40.34554 14.59777 35373 ft 415 kts 314°
2026-05-06 13:34 40.36769 14.57339 35596 ft 415 kts 314°
2026-05-06 13:35 40.38976 14.54901 35801 ft 415 kts 314°
2026-05-06 13:35 40.41180 14.52459 35977 ft 415 kts 313°
2026-05-06 13:35 40.43382 14.50018 36023 ft 413 kts 313°
2026-05-06 13:36 40.47746 14.45179 36022 ft 412 kts 313°
2026-05-06 13:36 40.52129 14.40311 36024 ft 412 kts 313°
2026-05-06 13:37 40.56518 14.35432 36023 ft 413 kts 313°
2026-05-06 13:37 40.60563 14.30166 36025 ft 407 kts 306°
2026-05-06 13:38 40.64370 14.24659 36025 ft 407 kts 306°
2026-05-06 13:38 40.68172 14.19129 36025 ft 406 kts 305°
2026-05-06 13:39 40.71869 14.13563 36029 ft 406 kts 304°
2026-05-06 13:39 40.75570 14.07926 36031 ft 406 kts 304°
2026-05-06 13:40 40.79281 14.02288 36033 ft 406 kts 304°
2026-05-06 13:40 40.82998 13.96648 36038 ft 407 kts 304°
2026-05-06 13:41 40.86717 13.91016 36041 ft 407 kts 304°
2026-05-06 13:41 40.90427 13.85367 36044 ft 407 kts 304°
2026-05-06 13:42 40.94132 13.79710 36043 ft 406 kts 304°
2026-05-06 13:42 40.97839 13.74050 36042 ft 406 kts 304°
2026-05-06 13:43 41.01523 13.68417 36040 ft 406 kts 304°
2026-05-06 13:43 41.05212 13.62740 36039 ft 406 kts 303°
2026-05-06 13:44 41.08906 13.57052 36037 ft 406 kts 304°
2026-05-06 13:44 41.12580 13.51400 36032 ft 406 kts 303°
2026-05-06 13:45 41.16277 13.45706 36030 ft 407 kts 303°
2026-05-06 13:45 41.21808 13.37145 36023 ft 407 kts 303°
2026-05-06 13:46 41.25500 13.31416 36023 ft 408 kts 303°
2026-05-06 13:46 41.29174 13.25710 36019 ft 408 kts 303°
2026-05-06 13:47 41.32872 13.19967 36019 ft 409 kts 303°
2026-05-06 13:47 41.36571 13.14212 36015 ft 409 kts 303°
2026-05-06 13:48 41.40273 13.08431 36007 ft 410 kts 303°
2026-05-06 13:48 41.43974 13.02631 36019 ft 410 kts 303°
2026-05-06 13:49 41.47678 12.96818 36027 ft 411 kts 303°
2026-05-06 13:49 41.51387 12.90993 36019 ft 412 kts 303°
2026-05-06 13:50 41.55079 12.85181 36030 ft 413 kts 303°
2026-05-06 13:50 41.58800 12.79314 36022 ft 413 kts 303°
2026-05-06 13:51 41.62521 12.73428 36033 ft 414 kts 303°
2026-05-06 13:51 41.66245 12.67524 36032 ft 414 kts 303°
2026-05-06 13:52 41.69944 12.61653 36039 ft 415 kts 303°
2026-05-06 13:52 41.73677 12.55730 36030 ft 415 kts 303°
2026-05-06 13:53 41.77406 12.49798 36033 ft 416 kts 303°
2026-05-06 13:53 41.81107 12.43890 36025 ft 415 kts 303°
2026-05-06 13:54 41.84821 12.37938 36004 ft 416 kts 303°
2026-05-06 13:54 41.88535 12.31977 36006 ft 416 kts 303°
2026-05-06 13:55 41.92259 12.26015 35975 ft 416 kts 303°
2026-05-06 13:55 41.95984 12.20032 35975 ft 416 kts 303°
2026-05-06 13:56 41.99679 12.14085 35978 ft 417 kts 302°
2026-05-06 13:56 42.03402 12.08075 35982 ft 417 kts 302°
2026-05-06 13:57 42.07117 12.02049 35985 ft 418 kts 302°
2026-05-06 13:57 42.10841 11.96011 35992 ft 418 kts 302°
2026-05-06 13:58 42.14533 11.90013 35998 ft 418 kts 302°
2026-05-06 13:58 42.18258 11.83955 36001 ft 419 kts 302°
2026-05-06 13:59 42.21975 11.77887 36004 ft 419 kts 302°
2026-05-06 13:59 42.25666 11.71840 35998 ft 419 kts 302°
2026-05-06 14:00 42.29381 11.65763 35993 ft 419 kts 302°
2026-05-06 14:00 42.33085 11.59676 35988 ft 419 kts 302°
2026-05-06 14:01 42.36794 11.53576 35984 ft 420 kts 302°
2026-05-06 14:01 42.40511 11.47458 35981 ft 420 kts 302°
2026-05-06 14:02 42.44221 11.41325 35971 ft 421 kts 301°
2026-05-06 14:02 42.47935 11.35175 35969 ft 421 kts 301°
2026-05-06 14:03 42.51649 11.29012 35969 ft 422 kts 301°
2026-05-06 14:03 42.55344 11.22877 35967 ft 422 kts 301°
2026-05-06 14:04 42.59055 11.16697 35967 ft 423 kts 301°
2026-05-06 14:04 42.62762 11.10504 35951 ft 423 kts 301°
2026-05-06 14:05 42.65876 11.05294 35953 ft 424 kts 301°
2026-05-06 14:05 42.69570 10.99116 35951 ft 424 kts 301°
2026-05-06 14:06 42.73302 10.92856 35951 ft 424 kts 301°
2026-05-06 14:06 42.77027 10.86587 35953 ft 425 kts 301°
2026-05-06 14:07 42.80730 10.80346 35951 ft 426 kts 301°
2026-05-06 14:07 42.84454 10.74049 35949 ft 426 kts 301°
2026-05-06 14:08 42.88175 10.67741 35949 ft 427 kts 301°
2026-05-06 14:08 42.91892 10.61420 35952 ft 427 kts 301°
2026-05-06 14:09 42.95783 10.55242 35954 ft 436 kts 311°
2026-05-06 14:09 43.01017 10.50737 35946 ft 456 kts 332°
2026-05-06 14:10 43.07233 10.48657 35943 ft 467 kts 343°
2026-05-06 14:10 43.13635 10.46979 35940 ft 468 kts 343°
2026-05-06 14:11 43.20039 10.45282 35945 ft 468 kts 342°
2026-05-06 14:11 43.26451 10.43582 35947 ft 469 kts 342°
2026-05-06 14:12 43.32866 10.41879 35946 ft 469 kts 342°
2026-05-06 14:12 43.39239 10.40185 35951 ft 470 kts 343°
2026-05-06 14:13 43.45676 10.38474 35954 ft 470 kts 343°
2026-05-06 14:13 43.52116 10.36759 35956 ft 470 kts 342°
2026-05-06 14:14 43.58548 10.35050 35961 ft 470 kts 342°
2026-05-06 14:14 43.64938 10.33342 35963 ft 470 kts 342°
2026-05-06 14:15 43.71369 10.31618 35965 ft 470 kts 342°
2026-05-06 14:15 43.74587 10.30748 35787 ft 470 kts 342°
2026-05-06 14:15 43.77800 10.29880 35532 ft 470 kts 342°
2026-05-06 14:16 43.81027 10.28993 34706 ft 474 kts 340°
2026-05-06 14:16 43.84174 10.27699 33804 ft 470 kts 332°
2026-05-06 14:16 43.87146 10.25861 32963 ft 464 kts 326°
2026-05-06 14:16 43.90013 10.23898 32390 ft 458 kts 326°
2026-05-06 14:17 43.92871 10.21946 31217 ft 468 kts 326°
2026-05-06 14:17 43.95787 10.19960 30624 ft 463 kts 326°
2026-05-06 14:17 43.98672 10.18004 30020 ft 459 kts 326°
2026-05-06 14:17 44.01534 10.16061 29365 ft 455 kts 326°
2026-05-06 14:18 44.04240 10.13911 28817 ft 440 kts 316°
2026-05-06 14:18 44.06556 10.11251 28277 ft 424 kts 307°
2026-05-06 14:18 44.08459 10.08206 27761 ft 409 kts 298°
2026-05-06 14:18 44.10053 10.04969 27263 ft 401 kts 296°
2026-05-06 14:19 44.11617 10.01770 26780 ft 397 kts 296°
2026-05-06 14:19 44.13163 9.98618 26310 ft 392 kts 296°
2026-05-06 14:19 44.14673 9.95538 25860 ft 388 kts 296°
2026-05-06 14:19 44.16185 9.92447 25415 ft 384 kts 296°
2026-05-06 14:20 44.17679 9.89382 24965 ft 380 kts 296°
2026-05-06 14:20 44.19154 9.86343 24528 ft 377 kts 296°
2026-05-06 14:20 44.20614 9.83328 24092 ft 374 kts 296°
2026-05-06 14:20 44.22062 9.80338 23654 ft 370 kts 297°
2026-05-06 14:21 44.23499 9.77370 23179 ft 368 kts 297°
2026-05-06 14:21 44.24928 9.74424 22739 ft 364 kts 297°
2026-05-06 14:21 44.26339 9.71517 22303 ft 360 kts 296°
2026-05-06 14:21 44.27734 9.68631 21869 ft 356 kts 296°
2026-05-06 14:22 44.29113 9.65772 21428 ft 352 kts 296°
2026-05-06 14:22 44.30457 9.62985 20987 ft 347 kts 296°
2026-05-06 14:22 44.31958 9.60336 20530 ft 350 kts 306°
2026-05-06 14:22 44.33830 9.58096 20059 ft 358 kts 318°
2026-05-06 14:23 44.35978 9.56280 19579 ft 361 kts 322°
2026-05-06 14:23 44.38152 9.54512 19093 ft 360 kts 322°
2026-05-06 14:23 44.40314 9.52748 18560 ft 360 kts 322°
2026-05-06 14:23 44.42471 9.50981 18149 ft 358 kts 322°
2026-05-06 14:24 44.44618 9.49217 17703 ft 356 kts 322°
2026-05-06 14:24 44.46750 9.47461 17306 ft 353 kts 323°
2026-05-06 14:24 44.48810 9.45768 17165 ft 342 kts 323°
2026-05-06 14:24 44.50829 9.44107 17026 ft 331 kts 323°
2026-05-06 14:25 44.52792 9.42489 16750 ft 324 kts 322°
2026-05-06 14:25 44.54731 9.40880 16417 ft 322 kts 322°
2026-05-06 14:25 44.56655 9.39278 16080 ft 320 kts 323°
2026-05-06 14:25 44.58630 9.37820 15749 ft 324 kts 335°
2026-05-06 14:26 44.60841 9.37220 15391 ft 330 kts 349°
2026-05-06 14:26 44.63134 9.36929 15048 ft 329 kts 350°
2026-05-06 14:26 44.65409 9.36666 14747 ft 326 kts 351°
2026-05-06 14:26 44.67668 9.36411 14405 ft 324 kts 351°
2026-05-06 14:27 44.69919 9.36159 14017 ft 324 kts 351°
2026-05-06 14:27 44.72160 9.35902 13710 ft 320 kts 351°
2026-05-06 14:27 44.74377 9.35645 13334 ft 319 kts 351°
2026-05-06 14:27 44.76589 9.35385 12973 ft 317 kts 351°
2026-05-06 14:28 44.78758 9.35128 12611 ft 316 kts 351°
2026-05-06 14:28 44.80950 9.34865 12267 ft 315 kts 351°
2026-05-06 14:28 44.83161 9.34598 11676 ft 321 kts 351°
2026-05-06 14:28 44.85411 9.34327 11095 ft 325 kts 351°
2026-05-06 14:29 44.87642 9.34061 10523 ft 318 kts 351°
2026-05-06 14:29 44.89824 9.33806 9966 ft 311 kts 352°
2026-05-06 14:29 44.91959 9.33561 9384 ft 304 kts 352°
2026-05-06 14:29 44.94056 9.33315 8782 ft 300 kts 352°
2026-05-06 14:30 44.96118 9.33069 8189 ft 295 kts 352°
2026-05-06 14:30 44.98162 9.32826 7605 ft 292 kts 352°
2026-05-06 14:30 45.00155 9.32587 7042 ft 290 kts 352°
2026-05-06 14:30 45.02148 9.32349 6464 ft 284 kts 353°
2026-05-06 14:31 45.04104 9.32116 5908 ft 279 kts 353°
2026-05-06 14:31 45.06023 9.31886 5313 ft 274 kts 353°
2026-05-06 14:31 45.07906 9.31662 4738 ft 269 kts 353°
2026-05-06 14:31 45.09756 9.31450 4155 ft 265 kts 354°
2026-05-06 14:32 45.11587 9.31250 3617 ft 260 kts 354°
2026-05-06 14:32 45.13323 9.31066 3480 ft 240 kts 354°
2026-05-06 14:32 45.14967 9.30891 3355 ft 235 kts 354°
2026-05-06 14:32 45.16574 9.30718 3228 ft 234 kts 355°
2026-05-06 14:33 45.18189 9.30542 3114 ft 227 kts 355°
2026-05-06 14:33 45.19729 9.30375 3012 ft 218 kts 355°
2026-05-06 14:33 45.21221 9.30211 2991 ft 212 kts 355°
2026-05-06 14:33 45.22694 9.30049 2986 ft 212 kts 354°
2026-05-06 14:34 45.24165 9.29891 2989 ft 212 kts 355°
2026-05-06 14:34 45.25633 9.29734 2987 ft 211 kts 355°
2026-05-06 14:34 45.27100 9.29576 2990 ft 211 kts 355°
2026-05-06 14:34 45.28551 9.29421 2990 ft 211 kts 354°
2026-05-06 14:35 45.30012 9.29265 2904 ft 211 kts 355°
2026-05-06 14:35 45.31478 9.29107 2673 ft 211 kts 355°
2026-05-06 14:35 45.32942 9.28950 2405 ft 210 kts 355°
2026-05-06 14:35 45.34390 9.28795 2152 ft 207 kts 356°
2026-05-06 14:36 45.35780 9.28645 1855 ft 191 kts 356°
2026-05-06 14:36 45.37039 9.28510 1628 ft 172 kts 357°
2026-05-06 14:36 45.38184 9.28386 1392 ft 158 kts 357°
2026-05-06 14:36 45.39241 9.28273 1178 ft 149 kts 359°
2026-05-06 14:37 45.40278 9.28162 994 ft 149 kts 359°
2026-05-06 14:37 45.41300 9.28052 802 ft 145 kts
2026-05-06 14:37 45.42303 9.27947 618 ft 144 kts
2026-05-06 14:37 45.43311 9.27838 417 ft 146 kts
2026-05-06 14:38 45.43967 9.27765 362 ft 135 kts
2026-05-06 14:38 45.44807 9.27684 358 ft 85 kts 354°
2026-05-06 14:38 45.45278 9.27650 358 ft 36 kts
2026-05-06 14:38 45.45489 9.27797 363 ft 33 kts 27°
2026-05-06 14:39 45.45707 9.27834 361 ft 32 kts
2026-05-06 14:39 45.45873 9.27846 361 ft 4 kts 359°
2026-05-06 14:39 45.45894 9.27852 360 ft 3 kts 38°
2026-05-06 14:39 45.45905 9.27893 363 ft 8 kts 71°
2026-05-06 14:40 45.45915 9.27942 362 ft 0 kts 94°
2026-05-06 14:40 45.45913 9.27968 360 ft 8 kts 97°
2026-05-06 14:40 45.45922 9.28021 360 ft 15 kts 56°
2026-05-06 14:40 45.45954 9.28037 360 ft 0 kts 349°
2026-05-06 14:41 45.45960 9.28036 360 ft 4 kts 354°
2026-05-06 14:41 45.45979 9.28035 366 ft 4 kts 359°
2026-05-06 14:41 45.45990 9.28035 366 ft 0 kts 359°